Location: Campbell Lake
(32.1204°N, 97.6289°W)
Time: 01:57:41
(UTC+00:00)

ARIANE 6 FM1 Upper Stage - Pass Details

Date: 17 December 2025
Orbit: 522 x 610 km, 62.0° (Epoch: 16 January)

Event Time Altitude Azimuth Distance (km) Brightness Sun altitude
Exits shadow 11:21:29 57° 84° (E) 634 3.1 -25.4°
Drops below altitude 10° 11:24:59 10° 38° (NE) 1,781 5.5 -24.7°
Sets 11:27:10 0° 36° (NE) 2,665 6.4 -24.2°
